Weather History for Milton, FL

Change the Weather History Date:

Thursday, April 4, 2013

  Actual Average (KNSE) Record (KNSE)
Temperature  
Mean Temperature 66 °F -  
Max Temperature 73 °F 73 °F 84 °F (2011)
Min Temperature 57 °F 53 °F 45 °F (2005)
Growing Degree Days 16 (Base 50)    
Moisture  
Dew Point 58 °F    
Average Humidity 81    
Maximum Humidity 97    
Minimum Humidity 60    
Precipitation  
Precipitation 0.00 in - - ()
Sea Level Pressure  
Sea Level Pressure 29.88 in    
Wind  
Wind Speed 5 mph (NW)    
Max Wind Speed 13 mph    
Max Gust Speed 17 mph    
Visibility 8 miles    
Events Fog    
Averages and records for this station are not official NWS values.
T = Trace of Precipitation, MM = Missing Value Source: NWS Daily Summary

Daily Weather History Graph

Daily Weather History Graph

Search for Another Location

Airport:

Trip Planner

Search our weather history database for the weather conditions in past years. The results will help you decide how hot, cold, wet, or windy it might be!

Date:

Astronomy

Apr. 04, 2013 Rise Set
Actual Time 6:33 AM CDT 7:09 PM CDT
Civil Twilight 6:08 AM CDT 7:33 PM CDT
Nautical Twilight 5:40 AM CDT 8:02 PM CDT
Astronomical Twilight 5:11 AM CDT 8:31 PM CDT
Moon 2:36 AM CDT (4/4) 1:48 PM CDT (4/4)
Length of Visible Light 13h 24m
Length of Day
12h 36m
Waning Crescent, 33% of the Moon is Illuminated
Apr 4
Waning Crescent
Apr 10
New
Apr 18
First Quarter
Apr 25
Full
May 2
Last Quarter

Hourly Weather History & Observations

Time (CDT) Temp. Dew Point Humidity Pressure Visibility Wind Dir Wind Speed Gust Speed Precip Events Conditions
12:56 AM 60.1 °F 55.9 °F 86% 29.90 in 10.0 mi NE 6.9 mph - N/A   Overcast
1:56 AM 59.0 °F 55.9 °F 90% 29.87 in 10.0 mi NE 8.1 mph - N/A   Overcast
2:56 AM 60.1 °F 57.0 °F 90% 29.85 in 10.0 mi NE 8.1 mph - N/A   Overcast
3:56 AM 60.1 °F 57.0 °F 90% 29.85 in 10.0 mi NNE 3.5 mph - N/A   Overcast
4:56 AM 60.1 °F 57.0 °F 90% 29.85 in 8.0 mi NNE 4.6 mph - N/A   Overcast
5:56 AM 60.1 °F 57.9 °F 93% 29.86 in 4.0 mi Calm Calm - N/A   Overcast
6:21 AM 60.8 °F 57.2 °F 88% 29.91 in 2.5 mi Calm Calm - N/A   Overcast
6:47 AM 60.8 °F 57.2 °F 88% 29.92 in 1.5 mi ENE 3.5 mph - N/A   Overcast
6:56 AM 60.1 °F 57.9 °F 93% 29.88 in 1.0 mi Calm Calm - N/A   Mist
7:05 AM 60.8 °F 57.2 °F 88% 29.92 in 0.5 mi Calm Calm - N/A Fog Fog
7:56 AM 60.1 °F 57.9 °F 93% 29.89 in 0.5 mi NNW 3.5 mph - N/A Fog Fog
8:39 AM 60.8 °F 59.0 °F 94% 29.93 in 1.2 mi NNW 6.9 mph - N/A   Overcast
8:54 AM 60.8 °F 59.0 °F 94% 29.93 in 3.0 mi NNW 6.9 mph - N/A   Overcast
8:56 AM 60.1 °F 59.0 °F 96% 29.90 in 3.0 mi NNW 5.8 mph - N/A   Overcast
9:56 AM 61.0 °F 60.1 °F 97% 29.91 in 9.0 mi Calm Calm - N/A   Overcast
10:42 AM 62.6 °F 59.0 °F 88% 29.96 in 10.0 mi SE 4.6 mph - N/A   Overcast
10:56 AM 63.0 °F 59.0 °F 87% 29.92 in 10.0 mi Calm Calm - N/A   Overcast
11:56 AM 66.0 °F 60.1 °F 81% 29.91 in 10.0 mi Variable 3.5 mph - N/A   Overcast
12:56 PM 68.0 °F 60.1 °F 76% 29.89 in 10.0 mi NW 6.9 mph - N/A   Overcast
1:31 PM 69.8 °F 60.8 °F 73% 29.91 in 10.0 mi Variable 4.6 mph - N/A   Overcast
1:39 PM 71.6 °F 60.8 °F 69% 29.91 in 10.0 mi Variable 5.8 mph - N/A   Overcast
1:56 PM 70.0 °F 59.0 °F 68% 29.87 in 10.0 mi WNW 8.1 mph - N/A   Overcast
2:37 PM 69.8 °F 57.2 °F 64% 29.90 in 10.0 mi Variable 6.9 mph - N/A   Overcast
2:56 PM 71.1 °F 57.9 °F 63% 29.85 in 10.0 mi Variable 4.6 mph - N/A   Overcast
3:09 PM 69.8 °F 57.2 °F 64% 29.88 in 10.0 mi Variable 3.5 mph - N/A   Overcast
3:24 PM 71.6 °F 57.2 °F 60% 29.88 in 10.0 mi Variable 4.6 mph - N/A   Mostly Cloudy
3:56 PM 72.0 °F 57.9 °F 61% 29.83 in 10.0 mi Calm Calm - N/A   Mostly Cloudy
4:56 PM 72.0 °F 57.9 °F 61% 29.82 in 10.0 mi SW 3.5 mph - N/A   Overcast
5:37 PM 71.6 °F 59.0 °F 64% 29.85 in 10.0 mi South 3.5 mph - N/A   Overcast
5:46 PM 71.6 °F 59.0 °F 64% 29.85 in 10.0 mi SSE 4.6 mph - N/A   Overcast
5:56 PM 71.1 °F 59.0 °F 66% 29.81 in 10.0 mi SSE 6.9 mph - N/A   Mostly Cloudy
6:56 PM 66.9 °F 59.0 °F 76% 29.81 in 10.0 mi South 8.1 mph - N/A   Scattered Clouds
7:56 PM 64.0 °F 59.0 °F 84% 29.82 in 10.0 mi South 5.8 mph - N/A   Overcast
8:39 PM 64.4 °F 59.0 °F 83% 29.86 in 10.0 mi WSW 8.1 mph - N/A   Overcast
8:56 PM 64.9 °F 57.9 °F 78% 29.83 in 10.0 mi WNW 5.8 mph - N/A   Overcast
9:29 PM 62.6 °F 57.2 °F 82% 29.88 in 10.0 mi NW 8.1 mph 17.3 mph N/A   Overcast
9:56 PM 63.0 °F 57.0 °F 81% 29.85 in 10.0 mi WNW 8.1 mph - N/A   Overcast
10:31 PM 60.8 °F 57.2 °F 88% 29.91 in 10.0 mi WNW 9.2 mph 17.3 mph N/A   Overcast
10:56 PM 60.1 °F 55.9 °F 86% 29.86 in 10.0 mi NW 12.7 mph - N/A   Overcast
11:56 PM 57.9 °F 54.0 °F 87% 29.87 in 10.0 mi WNW 9.2 mph - N/A   Overcast